Погода в Морозовске

Погода в Морозовске : погода сейчас, прогноз погоды и архив. Всё, что Вы хотите узнать о погоде в Морозовске!

Хотите узнать прогноз погоды в Морозовске? Тогда Вам сюда: Погода в Морозовске

Поиск расширенной информации на нашем сайте:

Другие новости

Новости СМИ2

Главная страница сайта

Новости сайта

03.07.2017

Напоминаем, что на нашем специализированном сайте Метеоцентр.Азия вы можете получить высокодетализированные автоматические прогнозы погоды по пунктам России, СНГ и мира в авиационном формате (включающие направление и скорость ветра, видимость, явления погоды, количество и форму облачности, нижнюю и верхнюю границу облачности).


Погода в Морозовске - сегодня

Время (UTC), дата Ветер
(°,м/с) 
Видим.   Явления Облачность Т
(°С)
Тd
(°С)
f(%) Тe
(°С)
Pmin
(гПа)
dP
(гПа)
Po
(мм)
O2
(г/м3)
Тmin Tmax R s Состояние
почвы
09 16.08.18 100 (В) 20000 м    ясно 
+33.5 +6.2 18 +34  1015.6  -0.6  754  270           
12 16.08.18 120 (ЮВ) 20000 м    5/5 600 м 
[Cu hum]
+34.5 +5.8 17 +35  1014.3  -1.2  753  269           
15 16.08.18 110 (В) 20000 м    3/0 средняя 
[Ac trans]
+31.6 +7.6 22 +32  1013.7  -0.6  753  271    +34.7       
18 16.08.18 090 (В) 20000 м    ясно 
+25.3 +7.5 32 +25  1014.8  0.8  753  277           
21 16.08.18 090 (В) 20000 м    ясно 
+21.6 +7.2 39 +22  1015  -0.1  753  280           
00 17.08.18 090 (В) 20000 м    ясно 
+19.7 +7.5 45 +21  1014.9  -0.2  753  282           
03 17.08.18 080 (В) 20000 м    ясно 
+17.7 +8.6 55 +19  1015.4  0.4  754  284  +15.6        сухая 
06 17.08.18 360 (С) 20000 м    ясно 
+28.7 +9.6 30 +29  1014.9  0.4  754  273           
09 17.08.18 030 (СВ) 20000 м    3/3 1000 м 
[Cu hum]
+33.4 +4.7 17 +33  1013.8  -1  753  270           
12 17.08.18 030 (СВ) 5{10}  20000 м    5/5 1000 м 
[Cu med, cong]
+34.6 +5.2 16 +35  1012.7  -1  752  268           
15 17.08.18 020 (С) 5-10  20000 м    5/5 1000 м 
[Cu med, cong]
+31.7 +7.6 22 +32  1012.5  -0.4  752  270    +34.7       
18 17.08.18 020 (С) 4{10}  20000 м    3/0 средняя 
[Ac trans]
+27.2 +11.1 37 +30  1013.8  1.1  753  274           
21 17.08.18 060 (СВ) 20000 м    ясно 
+23.2 +13 53 +29  1014.1  0.2  753  277           
00 18.08.18 030 (СВ) 20000 м    ясно 
+21.6 +14.5 64 +29  1014.3  0.1  753  278           
03 18.08.18 050 (СВ) 20000 м    3/0 средняя, верхняя 
[Ac trans|Ci fib]
+18.8 +13.5 71 +25  1015.3  754  281  +18.7        сухая 
06 18.08.18 050 (СВ) 6-10{11}  20000 м    ясно 
+23.1 +12.8 52 +28  1015.9  0.7  754  278           
09 18.08.18 050 (СВ) 7-10{12}  20000 м    3/0 средняя, верхняя 
[Ac trans|Ci fib]
+26.5 +10.2 36 +28  1015.7  -0.2  754  275           
12 18.08.18 050 (СВ) 5{11}  20000 м    3/3 1000 м 
[Cu hum]
+28.2 +8.7 29 +28  1015.4  -0.3  754  274           
15 18.08.18 060 (СВ) 6-10{12}  20000 м    ясно 
+25.7 +4 25 +26  1016.2  0.7  754  277    +28.3       
18 18.08.18 050 (СВ) 4{10}  20000 м    ясно 
+20.6 +2.1 29 +21  1018.1  1.8  756  283           
21 18.08.18 050 (СВ) 20000 м    ясно 
+17.9 +4.1 40 +18  1018.7  0.5  756  285           
00 19.08.18 060 (СВ) 20000 м    ясно 
+16.1 +3.8 44 +16  1019.5  0.8  757  287           
03 19.08.18 080 (В) 20000 м    ясно 
+14.1 +4.6 53 +15  1020.6  757  289  +13.9        сухая 
06 19.08.18 080 (В) 20000 м    ясно 
+21 +5.1 35 +21  1021.1  0.8  758  283           
09 19.08.18 050 (СВ) 5{10}  20000 м    ясно 
+24.2 +1.9 23 +24  1020.3  -0.8  757  280           
Время (UTC), дата Ветер
(°,м/с) 
Видим.   Явления Облачность Т
(°С)
Тd
(°С)
f(%) Тe
(°С)
Pmin
(гПа)
dP
(гПа)
Po
(мм)
O2
(г/м3)
Тmin Tmax R s Состояние
почвы

Для получения пояснительной информации подведите курсор к названию столбца.

ПОГОДА в Морозовске - архив

Всё, что Вы хотите узнать о погоде в Морозовске - удобно и подробно!

Выберите нужную дату (начиная с 1 января 2015* года) и нажмите кнопку "Найти".
Будут отображены архивные сводки погоды по пункту Морозовск, начиная с указанной даты.


Отображать данные в формате CSV (для использования в таблицах Excel)


Внимание! Наш архив погоды предназначен исключительно для личного некоммерческого использования в познавательных целях. Если Вам необходимы официальные справки о состоянии погоды (для производственных, юридических, коммерческих и т.п. целей), обращайтесь в органы Росгидромета.

*Примечание: данная дата относится к архиву по метеостанциям СССР (Россия, СНГ, Балтия).
Архив по метеостанциям Зарубежной Европы и Азии (кроме Китая) хранится 10 дней, по другим регионам земного шара (Китай, Африка, Америка, Австралия, Океания) - 1 день.

Морозовск - район местоположения метеостанции


Название, широта, долгота, высота метеостанции:
Морозовск 48.3°ш. 41.9°д. 90 м над ур. моря [Российская Федерация]

Дополнительная информация

В oтличие oт бoльшинства пoгoдных сайтoв мы публикуем пoдрoбную метеoинфoрмацию в детальнoм прoфессиoнальнoм фoрмате.

Характеристики температуры и влажнoсти вoздуха измеряются на высoте 2 м в тени вдали oт зданий и деревьев.
Скoрoсть ветра измеряется на высoте 10 м (на урoвне рoста челoвека скoрoсть ветра ниже в 1.5-2 раза). Если метеoстанция нахoдится в гoрoде или в лесу, тo скoрoсть ветра занижена на 2-4 м/с пo сравнению с oткрытым местoм. Скoрoсть ветра над акватoриями крупных рек и oзёр, а также на вершинах хoлмoв на 2-5 м/с выше, чем в oбычных услoвиях.
Атмoсфернoе давление в разных тoчках местнoсти мoжет значительнo oтличаться oт давления на метеoстанции, в зависимoсти oт услoвий рельефа (при пoдъёме на 10 м давление пoнижается примернo на 1 мм рт.ст.).